Find Starlink 11572

NORAD ID: 62990 Int'l Des: 2025-031 Owner: SPXS Country: US Constellation: starlink operational
LEOCIRCULAR

Current View

Loading 3D Globe...

About Starlink 11572

Starlink 11572 (NORAD 62990) is a starlink constellation satellite (v2 mini d2c) launched Feb 11, 2025 by SPXS of US. It operates in LEO, CIRCULAR orbit with a mass of 960.00 kg.

About Starlink 11572

Description loading...

Upcoming Passes

Passes for default location (London). Set your location on the main map for personalized predictions.

Altitude History

Loading altitude history...

Two-Line Element Set

1 62990U 25031K 26170.54493570 .00163254 00000-0 12482-2 0 9990
2 62990 43.0013 107.3256 0000771 293.7393 66.3393 15.70891452 78764
Epoch: Jun 19, 2026 • Age: 13 hours

Current Status

Altitude 359.4 km
Velocity 7.70 km/s
Sub-Earth Point 42.82°N, 90.68°W
Launch Date Feb 11, 2025
Age 1.3 years
Type internet

Technical Details

Classification Payload
Mass 960.00 kg
Dry Mass 910.00 kg
Total Mass 960.00 kg
Length 0.30 m
Diameter 4.10 m
Span 29.00 m
Shape Box + pan
Manufacturer SPXS
Bus Type Starlink V2MD
Phase Status In Orbit
Owner/State SPXS/US

Most Searched